TimePDT,TemperatureF,Dew PointF,Humidity,Sea Level PressureIn,VisibilityMPH,Wind Direction,Wind SpeedMPH,Gust SpeedMPH,PrecipitationIn,Events,Conditions,WindDirDegrees,DateUTC
12:53 AM,45.0,41.0,86,30.04,10.0,West,3.5,-,N/A,,Clear,260,2014-04-05 07:53:00
1:33 AM,46.0,42.1,86,30.03,10.0,WNW,6.9,-,N/A,,Mostly Cloudy,300,2014-04-05 08:33:00
1:48 AM,46.4,42.8,87,30.03,10.0,WNW,6.9,-,N/A,,Scattered Clouds,300,2014-04-05 08:48:00
1:53 AM,45.0,42.1,90,30.03,10.0,WNW,4.6,-,N/A,,Partly Cloudy,300,2014-04-05 08:53:00
2:10 AM,46.0,43.0,89,30.03,10.0,NW,4.6,-,N/A,,Mostly Cloudy,310,2014-04-05 09:10:00
2:53 AM,46.9,43.0,86,30.03,10.0,NW,9.2,-,N/A,,Overcast,310,2014-04-05 09:53:00
3:53 AM,46.9,43.0,86,30.02,10.0,West,4.6,-,N/A,,Overcast,280,2014-04-05 10:53:00
4:22 AM,46.0,43.0,89,30.03,10.0,WNW,5.8,-,N/A,,Overcast,300,2014-04-05 11:22:00
4:53 AM,46.0,43.0,89,30.03,10.0,NW,4.6,-,N/A,,Overcast,310,2014-04-05 11:53:00
5:05 AM,46.0,43.0,89,30.03,10.0,NW,5.8,-,N/A,,Overcast,310,2014-04-05 12:05:00
5:53 AM,46.0,43.0,89,30.04,10.0,NW,8.1,-,N/A,,Mostly Cloudy,310,2014-04-05 12:53:00
6:53 AM,45.0,43.0,93,30.06,10.0,NW,4.6,-,N/A,,Overcast,310,2014-04-05 13:53:00
7:53 AM,46.0,42.1,86,30.09,10.0,NE,4.6,-,N/A,,Overcast,40,2014-04-05 14:53:00
8:53 AM,48.0,43.0,83,30.10,10.0,NE,5.8,-,N/A,,Mostly Cloudy,50,2014-04-05 15:53:00
9:10 AM,50.0,44.1,80,30.11,10.0,ENE,4.6,-,N/A,,Scattered Clouds,60,2014-04-05 16:10:00
9:53 AM,52.0,44.1,74,30.13,10.0,Variable,3.5,-,N/A,,Clear,0,2014-04-05 16:53:00
10:53 AM,55.9,45.0,67,30.13,10.0,NE,3.5,-,N/A,,Clear,40,2014-04-05 17:53:00
11:53 AM,60.1,44.1,55,30.12,10.0,NNW,6.9,-,N/A,,Clear,330,2014-04-05 18:53:00
12:53 PM,62.1,41.0,46,30.12,10.0,Variable,3.5,-,N/A,,Clear,0,2014-04-05 19:53:00
1:53 PM,63.0,44.1,50,30.10,10.0,Variable,3.5,-,N/A,,Mostly Cloudy,0,2014-04-05 20:53:00
2:53 PM,64.9,44.1,47,30.08,10.0,Calm,Calm,-,N/A,,Clear,0,2014-04-05 21:53:00
3:53 PM,66.0,44.1,45,30.07,10.0,Variable,4.6,-,N/A,,Clear,0,2014-04-05 22:53:00
4:53 PM,66.9,44.1,44,30.06,10.0,Variable,3.5,-,N/A,,Scattered Clouds,0,2014-04-05 23:53:00
5:53 PM,68.0,43.0,40,30.07,10.0,NNW,8.1,-,N/A,,Partly Cloudy,330,2014-04-06 00:53:00
6:53 PM,66.0,45.0,47,30.08,10.0,NNW,17.3,-,N/A,,Overcast,330,2014-04-06 01:53:00
7:53 PM,61.0,45.0,56,30.10,10.0,NNW,13.8,-,N/A,,Clear,340,2014-04-06 02:53:00
8:53 PM,57.9,44.1,60,30.13,10.0,NNW,13.8,-,N/A,,Clear,330,2014-04-06 03:53:00
9:53 PM,55.0,44.1,67,30.16,10.0,NW,6.9,-,N/A,,Clear,310,2014-04-06 04:53:00
10:53 PM,53.1,45.0,74,30.17,10.0,NW,9.2,-,N/A,,Clear,310,2014-04-06 05:53:00
11:53 PM,52.0,45.0,77,30.17,10.0,NW,6.9,-,N/A,,Clear,310,2014-04-06 06:53:00